Location: *
(46.3500°N, 10.9000°E)
Time: 21:30:28
(UTC+00:00)

A-11 Canister half - Pass Details

Date: 21 April 2021
Orbit: 1526 x 1682 km, 47.3° (Epoch: 13 May)

Event Time Altitude Azimuth Distance (km) Brightness Sun altitude
Rises 12:55:22 0° 205° (SSW) 4,822 12.2 49.7°
Reaches altitude 10° 12:58:47 10° 197° (SSW) 3,860 11.9 49.3°
Maximum altitude 13:07:26 36° 136° (SE) 2,433 10.5 48.3°
Drops below altitude 10° 13:16:14 10° 75° (ENE) 3,946 10.9 47.2°
Sets 13:19:45 0° 67° (ENE) 4,940 11.3 46.8°
